Вернуться в каталог

FENGYUN 1C DEB

АктивенPO
NORAD 29977·DEBRIS·🇨🇳 China

Запущен May 10, 1999 с Taiyuan Satellite Launch Center

Loading…

Ближайшие Пролёты (ближайшие 24 часа)

TLE

УстаревающийSource: Space-Track

Эпоха: Sep 7, 2026, 20:41 UTC

1 29977U 99025LB  26250.86185589  .00001307  00000-0  76554-3 0  9995
2 29977  98.3761  98.0436 0126315 212.0246 160.6419 14.05922658  1320

Отслеживайте FENGYUN 1C DEB в реальном времени с AllMySat

Download on the App Store